Station NLHC3 - 8461490 - New London, CT Image indicating link to RSS feed of recent meteorological observations for station NLHC3


Conditions at NLHC3 as of
(6:30 pm EDT)
2230 GMT on 07/20/2024:
     

Click on the graph icon in the table below to see a time series plot of the last five days of that observation.

5-day plot - Atmospheric Pressure Atmospheric Pressure (PRES):30.03 in
NOS Water Level Observation Network Water Level
Previous observations
TIME
(EDT)
5-day plot - Wind Direction
WDIR
 
5-day plot - Wind Speed
WSPD
kts
5-day plot - Wind Gust
GST
kts
5-day plot - Wave Height
WVHT
ft
5-day plot - Dominant Wave Period
DPD
sec
5-day plot - Average Wave Period
APD
sec
5-day plot - Mean Wave Direction
MWD
 
5-day plot - Atmospheric Pressure
PRES
in
5-day plot - Pressure Tendency
PTDY
in
5-day plot - Air Temperature
ATMP
°F
5-day plot - Water Temperature
WTMP
°F
5-day plot - Dew Point
DEWP
°F
5-day plot - Salinity
SAL
psu
5-day plot - Visibility
VIS
nmi
5-day plot - Tide (above MLLW)
TIDE
ft
2024-07-20 06:24 pm-------30.03-------
2024-07-20 06:18 pm-------30.03- 78.6-----
2024-07-20 06:12 pm-------30.03- 78.3-----
2024-07-20 06:06 pm-------30.03- 78.3-----
2024-07-20 06:00 pm-------30.03-0.02 78.1-----
2024-07-20 05:54 pm-------30.03- 78.1-----
2024-07-20 05:48 pm-------30.03- 78.1-----
2024-07-20 05:42 pm-------30.03- 78.4-----
2024-07-20 05:36 pm-------30.04- 78.6-----
2024-07-20 05:30 pm-------30.04-------
2024-07-20 05:24 pm-------30.04-------
2024-07-20 05:18 pm-------30.04- 78.6-----
2024-07-20 05:12 pm-------30.04- 78.6-----
2024-07-20 05:06 pm-------30.04- 78.6-----
2024-07-20 05:00 pm-------30.04-0.04------
2024-07-20 04:54 pm-------30.04-------
2024-07-20 04:48 pm-------30.04-------
2024-07-20 04:42 pm-------30.04-------
2024-07-20 04:36 pm-------30.04-------
2024-07-20 04:30 pm-------30.04- 77.7-----
2024-07-20 04:24 pm-------30.04- 77.2-----
2024-07-20 04:18 pm-------30.04- 77.2-----
2024-07-20 04:12 pm-------30.04- 77.2-----
2024-07-20 04:06 pm-------30.04- 77.4-----
2024-07-20 04:00 pm--------- 77.4-----
2024-07-20 03:54 pm--------- 77.5-----
2024-07-20 03:48 pm-------30.04-------
2024-07-20 03:42 pm-------30.05-------
2024-07-20 03:36 pm-------30.05-------
2024-07-20 03:30 pm-------30.05- 77.4-----
2024-07-20 03:24 pm-------30.05- 77.7-----
2024-07-20 03:18 pm-------30.06- 77.9-----
2024-07-20 03:12 pm-------30.06- 78.6-----
2024-07-20 03:06 pm-------30.06- 79.2-----
2024-07-20 03:00 pm-------30.06-0.04 80.2-----
2024-07-20 02:54 pm-------30.06- 80.6-----
2024-07-20 02:48 pm-------30.06-------
2024-07-20 02:42 pm-------30.06-------
2024-07-20 02:36 pm-------30.07-------
2024-07-20 02:30 pm-------30.07- 79.5-----
2024-07-20 02:24 pm-------30.07- 79.9-----
2024-07-20 02:18 pm-------30.07- 79.0-----
2024-07-20 02:12 pm-------30.07- 79.5-----
2024-07-20 02:06 pm-------30.08- 79.3-----
2024-07-20 02:00 pm-------30.08-0.02 79.9-----
2024-07-20 01:54 pm-------30.08- 79.2-----
2024-07-20 01:48 pm-------30.08- 79.2-----
2024-07-20 01:42 pm-------30.09- 78.8-----
2024-07-20 01:36 pm-------30.09- 79.0-----
2024-07-20 01:30 pm-------30.09- 79.2-----
2024-07-20 01:24 pm-------30.09- 78.3-----
2024-07-20 01:18 pm-------30.09- 77.9-----
2024-07-20 01:12 pm-------30.09- 78.4-----
2024-07-20 01:06 pm-------30.09- 77.4-----
2024-07-20 01:00 pm-------30.10-0.01 77.7-----
2024-07-20 12:54 pm-------30.10- 77.9-----
2024-07-20 12:48 pm-------30.10-------
2024-07-20 12:42 pm-------30.10-------
2024-07-20 12:36 pm-------30.10-------
2024-07-20 12:30 pm-------30.10- 78.3-----
2024-07-20 12:24 pm-------30.10- 78.3-----
2024-07-20 12:18 pm-------30.10- 78.1-----
2024-07-20 12:12 pm-------30.10- 76.1-----
2024-07-20 12:06 pm-------30.10- 75.9-----
2024-07-20 12:00 pm-------30.10-0.01------
2024-07-20 11:54 am-------30.10-------
2024-07-20 11:48 am-------30.10-------
2024-07-20 11:42 am-------30.10-------
2024-07-20 11:36 am-------30.10-------
2024-07-20 11:30 am-------30.10- 77.2-----
2024-07-20 11:24 am-------30.10- 76.6-----
2024-07-20 11:18 am-------30.10- 77.5-----
2024-07-20 11:12 am-------30.10- 76.6-----
2024-07-20 11:06 am-------30.10- 75.2-----
2024-07-20 11:00 am-------30.10-0.01 75.2-----
2024-07-20 10:54 am-------30.10- 75.2-----
2024-07-20 10:48 am-------30.10-------
2024-07-20 10:42 am-------30.11-------
2024-07-20 10:36 am-------30.11-------
2024-07-20 10:30 am-------30.11- 75.0-----
2024-07-20 10:24 am-------30.11- 75.0-----
2024-07-20 10:18 am-------30.11- 74.7-----
2024-07-20 10:12 am-------30.11- 75.2-----
2024-07-20 10:06 am-------30.11- 75.2-----
2024-07-20 10:00 am-------30.11-0.01------
2024-07-20 09:54 am-------30.11-------
2024-07-20 09:48 am-------30.11- 76.3-----
2024-07-20 09:42 am-------30.11- 76.3-----
2024-07-20 09:36 am-------30.11- 75.0-----
2024-07-20 09:30 am-------30.11- 76.1-----
2024-07-20 09:24 am-------30.11- 76.6-----
2024-07-20 09:18 am-------30.11- 76.6-----
2024-07-20 09:12 am-------30.11- 76.3-----
2024-07-20 09:06 am-------30.11- 75.9-----
2024-07-20 09:00 am-------30.11+0.00 75.4-----
2024-07-20 08:54 am-------30.11- 75.0-----
2024-07-20 08:48 am-------30.11- 75.9-----
2024-07-20 08:42 am-------30.12- 75.7-----
2024-07-20 08:36 am-------30.12- 75.4-----
2024-07-20 08:30 am-------30.12- 75.0-----
2024-07-20 08:24 am-------30.12- 74.7-----
2024-07-20 08:18 am-------30.12-------
2024-07-20 08:12 am-------30.12-------
2024-07-20 08:06 am-------30.12-------
2024-07-20 08:00 am-------30.12+0.01 73.9-----
2024-07-20 07:54 am-------30.12- 73.4-----
2024-07-20 07:48 am-------30.12-------
2024-07-20 07:42 am-------30.12-------
2024-07-20 07:36 am-------30.12-------
2024-07-20 07:30 am-------30.12- 70.7-----
2024-07-20 07:24 am-------30.12- 70.0-----
2024-07-20 07:18 am-------30.12- 69.8-----
2024-07-20 07:12 am-------30.12- 69.8-----
2024-07-20 07:06 am-------30.12- 69.8-----
2024-07-20 07:00 am-------30.12+0.01 69.6-----
2024-07-20 06:54 am-------30.12- 68.7-----
2024-07-20 06:48 am-------30.11-------
2024-07-20 06:42 am-------30.11-------
2024-07-20 06:36 am-------30.12-------
2024-07-20 06:30 am-------30.11- 68.7-----
2024-07-20 06:24 am-------30.11- 68.4-----
2024-07-20 06:18 am-------30.11- 68.0-----
2024-07-20 06:12 am-------30.11- 68.0-----
2024-07-20 06:06 am-------30.11- 67.5-----
2024-07-20 06:00 am-------30.12+0.01 67.3-----
2024-07-20 05:54 am-------30.11- 67.1-----
2024-07-20 05:48 am-------30.11- 67.3-----
2024-07-20 05:42 am-------30.11- 67.3-----
2024-07-20 05:36 am-------30.11- 67.3-----
2024-07-20 05:30 am-------30.11- 67.5-----
2024-07-20 05:24 am-------30.11- 67.3-----
2024-07-20 05:18 am-------30.11- 67.3-----
2024-07-20 05:12 am-------30.11- 67.6-----
2024-07-20 05:06 am-------30.11- 67.6-----
2024-07-20 05:00 am-------30.11+0.00 67.3-----
2024-07-20 04:54 am-------30.11- 66.9-----
2024-07-20 04:48 am-------30.11-------
2024-07-20 04:42 am-------30.10-------
2024-07-20 04:36 am-------30.10-------
2024-07-20 04:30 am-------30.10- 67.5-----
2024-07-20 04:24 am-------30.10- 67.3-----
2024-07-20 04:18 am-------30.11-------
2024-07-20 04:12 am-------30.11-------
2024-07-20 04:06 am-------30.10-------
2024-07-20 04:00 am-------30.11-0.01------
2024-07-20 03:54 am-------30.11-------
2024-07-20 03:48 am-------30.11-------
2024-07-20 03:42 am-------30.10-------
2024-07-20 03:36 am-------30.10-------
2024-07-20 03:30 am-------30.11- 67.6-----
2024-07-20 03:24 am-------30.11- 68.0-----
2024-07-20 03:18 am-------30.11- 68.0-----
2024-07-20 03:12 am-------30.11- 68.0-----
2024-07-20 03:06 am-------30.11- 68.2-----
2024-07-20 03:00 am-------30.11-0.01 68.4-----
2024-07-20 02:54 am-------30.11- 68.4-----
2024-07-20 02:48 am-------30.11- 68.4-----
2024-07-20 02:42 am-------30.11- 68.5-----
2024-07-20 02:36 am-------30.11- 68.7-----
2024-07-20 02:30 am-------30.11- 68.9-----
2024-07-20 02:24 am-------30.11- 68.9-----
2024-07-20 02:18 am-------30.11- 69.1-----
2024-07-20 02:12 am-------30.11- 68.9-----
2024-07-20 02:06 am-------30.11- 68.9-----
2024-07-20 02:00 am-------30.11+0.00 69.1-----
2024-07-20 01:54 am-------30.11- 69.1-----
2024-07-20 01:48 am-------30.11- 69.1-----
2024-07-20 01:42 am-------30.11- 69.3-----
2024-07-20 01:36 am-------30.11- 69.6-----
2024-07-20 01:30 am-------30.11- 69.4-----
2024-07-20 01:24 am-------30.12- 69.4-----
2024-07-20 01:18 am-------30.12- 69.3-----
2024-07-20 01:12 am-------30.12- 69.3-----
2024-07-20 01:06 am-------30.12- 69.6-----
2024-07-20 01:00 am-------30.12+0.00 69.4-----
2024-07-20 12:54 am-------30.12- 69.4-----
2024-07-20 12:48 am-------30.12-------
2024-07-20 12:42 am-------30.12-------
2024-07-20 12:36 am-------30.12-------
2024-07-20 12:30 am-------30.12- 69.6-----
2024-07-20 12:24 am-------30.12- 69.6-----
2024-07-20 12:18 am-------30.12- 69.6-----
2024-07-20 12:12 am-------30.12- 69.6-----
2024-07-20 12:06 am-------30.12- 69.6-----
2024-07-20 12:00 am-------30.12+0.02 69.6-----
2024-07-19 11:54 pm-------30.12- 69.8-----
2024-07-19 11:48 pm-------30.12- 69.6-----
2024-07-19 11:42 pm-------30.11- 70.0-----
2024-07-19 11:36 pm-------30.11- 70.0-----
2024-07-19 11:30 pm-------30.11- 70.2-----
2024-07-19 11:24 pm-------30.11- 70.2-----
2024-07-19 11:18 pm-------30.11- 70.2-----
2024-07-19 11:12 pm-------30.11- 70.3-----
2024-07-19 11:06 pm-------30.11- 70.5-----
2024-07-19 11:00 pm-------30.11+0.02 70.5-----
2024-07-19 10:54 pm-------30.11- 70.7-----
2024-07-19 10:48 pm-------30.11-------
2024-07-19 10:42 pm-------30.11-------
2024-07-19 10:36 pm-------30.11-------
2024-07-19 10:30 pm-------30.11- 71.4-----
2024-07-19 10:24 pm-------30.11- 71.6-----
2024-07-19 10:18 pm-------30.11- 71.8-----
2024-07-19 10:12 pm-------30.11- 72.0-----
2024-07-19 10:06 pm-------30.11- 71.8-----
2024-07-19 10:00 pm-------30.11+0.03 72.0-----
2024-07-19 09:54 pm-------30.11- 72.1-----
2024-07-19 09:48 pm-------30.11- 72.3-----
2024-07-19 09:42 pm-------30.11- 72.5-----
2024-07-19 09:36 pm-------30.11- 72.7-----
2024-07-19 09:30 pm-------30.11- 72.3-----
2024-07-19 09:24 pm-------30.11- 72.5-----
2024-07-19 09:18 pm-------30.11- 72.9-----
2024-07-19 09:12 pm-------30.11- 73.0-----
2024-07-19 09:06 pm-------30.10- 73.4-----
2024-07-19 09:00 pm-------30.10+0.03 73.6-----
2024-07-19 08:54 pm-------30.10- 73.8-----
2024-07-19 08:48 pm-------30.10- 73.9-----
2024-07-19 08:42 pm-------30.10- 74.1-----
2024-07-19 08:36 pm-------30.10- 74.3-----
2024-07-19 08:30 pm-------30.10- 74.5-----
2024-07-19 08:24 pm-------30.10- 74.8-----
2024-07-19 08:18 pm-------30.10-------
2024-07-19 08:12 pm-------30.09-------
2024-07-19 08:06 pm-------30.09-------
2024-07-19 08:00 pm-------30.09+0.02 75.7-----
2024-07-19 07:54 pm-------30.09- 75.9-----
2024-07-19 07:48 pm-------30.09- 76.3-----
2024-07-19 07:42 pm-------30.09- 76.5-----
2024-07-19 07:36 pm-------30.09- 77.0-----
2024-07-19 07:30 pm-------30.09- 77.5-----
2024-07-19 07:24 pm-------30.08- 77.2-----
2024-07-19 07:18 pm-------30.08- 77.4-----
2024-07-19 07:00 pm-------30.08+0.01------
2024-07-19 06:54 pm-------30.08-------